Weather Roundup
Issued by NWS Chicago, IL

Home | Current Version | Previous Version | Graphics & Text | Print | Product List | Glossary On
Versions: 1 2 3 4 5 6 7 8 9 10 11 12 13 14 15 16 17 18 19 20 21 22 23 24 25 26 27 28 29 30 31 32 33 34 35 36 37 38 39 40 41 42 43 44 45 46 47 48 49 50
000
NZUS59 KLOT 010203
HRRLOT

CHICAGO AREA WEATHER ROUNDUP
NATIONAL WEATHER SERVICE CHICAGO/ROMEOVILLE IL
900 PM CDT SAT APR 30 2016

NOTE: "FAIR" INDICATES FEW OR NO CLOUDS BELOW 12,000 FEET WITH NO
SIGNIFICANT WEATHER AND/OR OBSTRUCTIONS TO VISIBILITY.

* THESE STATIONS ARE NOT UNDER NWS QUALITY CONTROL. THEY ALSO MAY NOT
  REPORT WEATHER SUCH AS PRECIPITATION OR FOG.

ILZ005-006-012>014-019>023-010300-
NORTHEAST ILLINOIS

CITY           SKY/WX    TMP DP  RH WIND       PRES   REMARKS
OHARE          LGT RAIN  45  44  97 NE15      29.93S FOG
MIDWAY         LGT RAIN  46  43  89 NE18      29.92R FOG
AURORA         CLOUDY    47  44  90 NE21G26   29.91R FOG
LANSING*       DRIZZLE   47  46  99 N9        29.90S
WAUKEGAN       LGT RAIN  43  42  97 N15G22    29.96R
DUPAGE AIRPORT LGT RAIN  45  42  89 NE15G23   29.91S FOG
WHEELING       LGT RAIN  44  43  96 NE13G25   29.96S FOG
MORRIS*        DRIZZLE   47  45  95 NE6       29.88S
$$

WIZ051-052-058>065-066-070>072-010300-
SOUTHEAST WISCONSIN

CITY           SKY/WX    TMP DP  RH WIND       PRES   REMARKS
MILWAUKEE      RAIN      42  40  92 N15       30.01F FOG
KENOSHA*       CLOUDY    44  42  93 NE16      29.98R
RACINE*        LGT RAIN  43  40  89 N15       30.01S FOG
BURLINGTON     DRIZZLE   42  41  97 NE12      29.97F
WAUKESHA       RAIN      39  39 100 NE9       30.02S FOG
$$

INZ001>003-010>013-019-020-010300-
NORTHWEST INDIANA

CITY           SKY/WX    TMP DP  RH WIND       PRES   REMARKS
GARY*          DRIZZLE   48  48 100 NE6       29.91S
MICHIGAN CITY* NOT AVBL
RENSSELAER*    NOT AVBL
VALPARAISO     CLOUDY    48  46  93 E15       29.88F FOG
$$

LMZ740>746-010300-
SOUTHERN LAKE MICHIGAN

STATION/POSITION TIME  SKY/WX   TEMP WIND        PRES    VSBY
                                AIR  DIR/SP/G
                 (UTC)          (F)  (DEG/KT/KT) (MB)    (MI)
HARRISON CRIB    0100            44   50/ 21/ 23   N/A
BURNHAM HARBOR   0200            44   30/ 12/ 19   N/A
CALUMET HARBOR   0100            45   30/ 15/ 20 1012.4F
BURNS HARBOR     0108            48   70/ 16/ 18 1012.5F
MICHIGAN CITY    0100            48   40/ 13/ 16   N/A
$$

ABBREVIATIONS USED IN REMARKS
   TC - TEMPERATURE IN CELSIUS
  WCI - WIND CHILL INDEX
   HX - HEAT INDEX
  VSB - VISIBILITY
$$




USA.gov is the U.S. government's official web portal to all federal, state and local government web resources and services.